Wind_Speed
41 37 35 35 37 37 36 36 37 38 40 43 42 39 36 35 36 38 40 41 43 43 44 45 45 45 45 45 46 46 47 47 48 48 48 49 49 50 50 51 52 53 54 55 56 56 57 58 59 60 61 61 62 63 63 63 64 65 66 67 69 71 72 72 73 74 76 77 79 81 81 82 83 83 84 85 85 85 84 84 84 84 84 84 84 84 84 85
46 42 38 35 35 35 36 37 38 38 39 40 42 43 42 40 38 38 39 40 42 43 44 46 46 47 47 47 48 48 48 49 49 50 50 51 51 52 53 53 54 54 55 57 58 58 59 60 61 62 63 64 65 65 66 66 67 68 69 71 73 75 76 77 78 79 80 81 83 84 85 85 85 85 84 85 84 84 84 84 84 85 85 86 86 87 88 89
49 47 44 41 37 36 35 36 37 39 39 40 40 42 43 43 43 43 43 42 42 43 44 45 46 46 46 47 47 47 48 49 50 50 51 51 52 52 53 54 55 56 57 58 60 61 61 62 63 64 65 66 67 68 69 69 70 72 74 76 78 78 79 80 80 81 82 83 84 85 85 85 85 84 84 84 84 85 86 87 87 88 89 90 91 91 92 94
52 50 48 46 43 40 37 35 36 37 39 41 41 41 42 43 44 45 46 47 47 46 46 45 46 46 46 47 47 48 49 49 50 51 52 52 52 53 54 55 56 57 59 60 61 62 63 64 65 67 68 70 70 71 72 73 74 76 77 78 79 79 79 80 80 81 82 83 84 84 84 84 84 85 85 86 87 88 89 90 91 93 94 95 95 96 97 99
54 53 51 49 47 45 42 39 37 37 38 40 42 42 43 44 44 45 46 47 49 50 50 49 49 49 49 49 50 51 52 52 53 54 55 56 57 57 58 59 59 61 62 63 64 65 65 66 67 69 71 72 74 75 76 77 77 78 78 79 79 79 80 80 81 82 83 83 84 85 85 86 86 87 88 90 91 92 93 95 96 97 99 99 100 101 102 104
55 55 54 53 51 49 46 43 42 40 40 40 40 42 43 45 46 47 47 48 49 50 52 52 52 52 52 53 54 54 55 56 57 57 58 59 61 62 62 63 63 64 65 66 67 68 69 70 70 71 72 74 75 76 77 78 78 78 79 80 80 81 82 84 85 85 86 87 88 89 89 90 91 92 93 95 96 97 98 100 101 102 103 104 105 106 107 108
52 54 55 55 54 53 51 48 46 44 43 43 42 42 43 44 45 47 48 49 50 51 52 53 53 54 54 55 56 57 57 58 59 59 60 61 62 63 64 64 65 66 67 68 69 70 71 72 73 74 75 77 78 79 80 81 82 82 84 85 86 87 88 89 91 92 93 93 94 95 95 96 97 98 99 100 101 102 103 104 105 106 108 109 110 111 111 112
46 49 52 54 54 54 53 53 51 49 48 46 46 46 46 46 46 47 48 49 50 51 52 53 54 55 56 56 57 59 59 60 61 61 62 63 63 64 65 65 66 67 67 69 70 71 72 74 75 76 77 79 80 81 83 84 85 86 88 90 91 92 93 94 95 96 97 98 98 99 99 100 101 101 102 103 104 105 106 108 109 110 112 113 114 114 115 115
39 42 45 48 51 52 53 53 53 53 52 51 50 50 49 49 49 49 49 50 50 51 52 53 53 54 55 56 58 59 60 61 61 62 64 65 66 67 68 68 69 69 70 70 71 72 73 74 76 77 78 79 81 82 83 84 85 87 88 90 91 93 94 95 96 98 99 99 100 101 102 103 103 104 105 105 107 108 109 110 112 113 114 115 116 116 117 117
33 36 39 41 44 47 49 51 52 53 53 53 53 53 53 53 53 52 52 53 53 53 54 54 55 55 56 57 58 59 60 61 62 63 64 65 66 67 69 70 71 72 73 74 75 76 77 77 78 79 80 82 83 85 86 87 88 89 91 92 94 95 97 98 99 101 102 102 103 104 105 106 107 107 108 109 110 111 111 112 112 113 113 113 114 115 115 116
29 31 33 35 37 40 43 45 47 49 51 52 53 53 54 54 54 55 55 56 56 57 57 58 58 59 59 60 61 62 63 64 64 65 66 67 68 69 70 71 73 74 75 77 78 79 80 81 82 83 84 86 87 89 90 91 92 94 95 96 98 99 101 102 103 104 105 105 106 107 108 109 109 109 109 109 109 109 109 110 110 110 110 110 110 110 111 111
26 27 29 30 32 34 36 38 40 42 44 46 48 49 51 52 53 53 54 55 56 57 58 59 60 60 61 62 63 64 65 65 66 67 68 69 70 71 72 73 74 75 76 77 78 79 80 82 83 84 86 87 89 91 92 93 94 95 96 97 99 100 101 102 103 104 105 105 106 106 107 106 106 106 105 105 105 105 105 105 105 105 105 105 106 106 106 107
24 25 25 26 27 29 30 32 34 36 38 40 42 43 45 47 48 49 50 51 52 53 54 55 56 57 57 58 59 61 62 63 64 65 65 66 67 69 70 71 71 72 73 74 75 77 78 79 81 82 84 85 87 89 89 91 92 92 94 94 96 98 98 99 100 100 101 101 101 102 102 101 101 101 101 101 101 100 100 101 101 101 102 102 102 103 103 104
21 22 23 24 25 26 27 29 31 32 34 35 37 38 39 41 42 43 44 45 46 47 48 49 50 51 52 53 54 56 57 58 58 59 60 61 62 63 65 66 67 68 70 71 72 73 75 76 78 79 81 82 84 85 86 86 87 88 90 91 92 94 94 95 95 96 97 97 98 99 99 98 98 98 98 98 98 98 98 98 98 99 99 100 100 101 101 102
21 21 22 23 24 25 26 28 29 30 31 32 33 34 35 36 37 38 39 40 41 42 43 44 45 46 47 48 49 51 52 53 54 55 56 57 58 59 61 63 64 65 67 69 70 71 73 74 76 78 80 81 82 83 84 84 85 87 89 89 91 92 92 93 94 94 95 96 96 97 97 96 96 96 96 96 96 96 96 96 97 97 98 98 99 99 99 100
21 22 23 24 25 26 27 28 29 29 30 30 31 32 33 34 34 35 36 37 38 39 40 40 41 42 43 44 46 47 49 50 52 53 54 55 57 58 60 62 64 65 66 68 69 71 72 74 76 78 80 81 82 83 83 84 85 87 88 88 90 91 91 92 92 93 94 94 95 95 95 94 94 94 94 94 95 95 95 95 96 96 96 97 97 97 97 97
21 22 23 24 25 26 27 27 28 28 28 29 30 30 31 32 32 33 34 35 36 37 38 39 40 41 43 44 45 47 48 50 52 53 55 56 58 59 61 63 64 66 67 68 70 72 73 75 77 79 80 81 82 83 83 83 84 86 86 87 88 89 90 90 91 91 92 93 93 93 93 92 92 92 92 92 93 93 93 93 93 94 94 94 94 94 93 93
22 23 24 25 25 26 27 27 27 27 28 29 29 30 30 31 32 33 33 34 36 38 39 40 41 42 44 46 47 48 50 52 53 55 57 59 60 62 63 64 66 68 68 70 72 73 75 76 78 79 80 81 81 82 82 82 83 84 85 86 86 87 88 88 89 89 90 91 91 91 91 91 90 90 90 90 90 90 90 89 89 88 88 88 88 88 87 87
22 23 24 25 25 26 26 26 26 27 28 29 29 30 31 31 32 33 34 36 37 38 40 41 42 43 45 47 48 50 52 53 55 57 58 60 61 63 64 65 66 68 69 70 72 74 75 76 78 79 79 80 80 80 81 81 82 83 83 84 85 86 86 87 87 88 88 89 89 88 88 88 87 87 86 86 85 84 83 83 82 82 82 82 82 82 82 83
21 23 24 24 25 25 26 27 27 28 29 30 30 31 32 33 33 34 35 36 38 39 40 41 43 45 47 48 50 51 53 54 56 57 58 59 61 62 63 64 65 66 68 69 70 72 73 75 76 77 77 78 79 79 80 80 81 82 83 83 84 85 85 85 85 85 86 85 85 84 84 83 82 82 81 80 79 78 77 77 77 77 77 77 78 78 79 80
20 21 23 24 24 25 26 27 28 29 30 31 31 32 33 34 34 35 36 37 38 39 41 43 45 47 48 49 51 52 53 54 55 57 58 59 59 61 62 62 64 65 66 68 69 71 72 73 75 76 77 78 78 79 80 80 81 81 82 82 82 82 82 81 80 80 80 79 78 77 77 77 76 75 75 74 73 73 73 73 73 73 74 74 75 76 77 78
18 19 20 21 22 24 25 26 27 28 29 30 31 32 32 33 34 35 37 38 40 42 43 45 46 48 49 50 51 52 53 54 55 57 58 58 59 60 61 63 64 65 67 68 69 71 72 74 75 77 78 78 79 79 80 79 79 79 78 77 76 75 74 73 72 72 72 72 70 70 71 71 70 69 69 69 70 70 71 71 72 72 73 74 75 76 77 78
17 18 19 20 21 22 24 25 27 28 29 30 31 32 33 35 36 38 39 41 42 43 45 46 47 49 50 51 52 53 54 55 56 57 58 59 60 61 62 64 65 66 68 69 70 72 73 75 76 76 77 77 77 76 75 73 72 71 70 69 68 67 67 66 66 66 67 66 65 66 67 67 66 67 68 69 70 70 71 72 73 74 75 76 77 78 79 80
18 18 19 20 21 22 24 26 27 29 30 31 32 33 35 36 37 39 40 41 43 44 45 47 48 50 51 52 53 54 55 57 58 59 60 60 61 62 63 64 65 66 67 68 68 68 68 69 69 69 69 68 68 67 66 65 64 64 64 63 63 63 64 64 64 64 65 64 65 67 67 65 65 67 69 70 71 72 73 73 75 76 77 78 79 80 81 82
18 19 19 20 21 23 24 25 26 27 28 29 30 32 33 35 36 37 39 41 42 44 46 48 50 51 53 54 55 56 57 58 59 60 61 61 62 62 63 64 64 64 64 63 62 62 61 61 61 61 61 61 61 61 61 62 62 63 63 63 63 63 64 65 65 66 66 65 66 68 68 66 67 69 70 71 72 73 74 75 77 78 79 80 81 82 83 84
19 19 20 21 22 23 24 25 26 26 27 28 29 31 32 34 36 38 40 42 44 46 47 49 51 53 55 56 57 57 58 59 60 61 61 61 61 61 61 62 61 60 59 59 59 59 59 59 59 59 59 60 61 61 62 62 62 63 64 64 65 65 66 66 67 68 67 67 68 69 71 70 68 69 71 73 74 75 76 78 79 81 82 83 84 84 85 86
21 21 22 23 24 25 26 27 27 28 28 30 31 32 34 36 38 40 42 44 46 48 49 51 52 54 56 57 58 58 59 59 60 60 60 60 60 60 59 58 58 58 58 59 59 59 59 60 60 60 60 61 62 62 63 63 64 65 65 66 66 67 67 68 69 69 70 70 69 70 73 74 71 69 72 75 76 77 79 81 82 83 84 85 86 86 87 88
24 25 25 27 28 28 28 28 29 30 31 33 34 35 37 39 41 43 44 46 48 50 51 52 54 55 56 57 57 58 58 58 58 59 59 59 58 57 57 57 57 58 58 59 59 60 60 61 61 61 62 63 63 64 64 65 66 66 67 67 68 68 69 69 70 71 72 72 71 72 76 77 73 71 73 76 77 79 81 82 84 84 85 86 87 88 88 89
26 27 28 30 31 31 31 31 32 33 34 35 37 38 40 41 43 45 47 48 50 51 52 53 53 54 54 55 56 56 56 57 57 57 57 57 57 56 56 57 57 58 59 59 60 61 61 62 63 63 64 64 65 65 66 66 67 68 68 69 69 70 70 70 71 71 72 72 71 73 76 77 74 71 73 76 77 79 81 82 83 84 85 86 87 88 89 89
29 29 31 32 33 34 34 34 35 36 37 38 39 41 42 44 46 47 49 50 51 51 51 51 52 52 53 53 54 55 55 56 55 55 55 55 56 56 57 57 58 59 60 60 61 62 63 63 64 64 65 65 66 66 67 67 68 68 69 69 70 70 70 70 70 71 72 70 71 73 74 76 74 71 72 76 76 78 80 80 82 83 83 84 85 86 87 88
31 31 33 34 35 36 36 37 38 39 40 41 42 43 45 46 48 49 50 50 50 50 50 50 51 52 53 53 54 54 54 55 54 54 54 55 55 56 57 58 59 59 60 61 62 62 62 63 63 63 64 64 65 65 66 66 67 67 68 68 68 68 68 68 68 70 70 69 70 72 73 74 73 71 72 75 76 77 78 79 80 81 82 83 83 84 85 86
33 34 35 36 37 38 38 39 40 41 42 43 44 46 47 48 49 49 49 49 49 50 50 50 51 52 52 53 53 53 53 53 54 54 55 55 56 57 58 58 59 59 60 61 62 62 62 62 62 62 62 63 63 63 64 64 65 65 66 66 66 66 66 65 66 68 69 69 69 70 72 72 72 72 72 73 74 76 77 78 79 79 80 81 82 83 84 84
35 36 37 38 39 39 40 40 41 42 44 45 46 48 49 49 49 48 48 48 49 50 51 51 52 52 52 52 53 53 53 54 54 55 56 56 57 57 58 58 58 58 57 58 59 60 61 62 61 60 60 61 61 61 62 63 63 64 64 65 65 66 65 64 65 66 67 68 68 69 71 71 71 72 73 73 74 75 76 77 78 79 80 81 82 83 84 85
37 38 39 39 40 40 41 42 43 44 46 47 48 48 48 48 48 48 48 49 49 50 51 51 52 52 52 52 52 53 54 54 55 56 56 57 57 56 56 55 55 55 54 55 55 56 59 60 60 59 59 60 60 61 61 62 63 63 64 65 65 66 66 65 65 66 67 68 69 70 72 72 73 74 75 75 76 77 78 79 80 81 82 83 84 85 86 87
38 39 40 40 41 42 43 44 45 46 47 47 47 47 47 47 48 48 49 49 50 50 50 51 51 51 51 52 53 54 54 54 55 55 54 54 54 54 53 53 53 53 53 53 54 55 57 59 58 58 59 59 60 61 61 62 63 63 64 65 66 67 68 68 67 68 69 69 70 71 73 74 76 76 77 78 79 80 81 81 82 83 84 86 87 88 89 90
39 40 40 41 42 44 45 45 46 46 46 46 46 46 47 47 48 48 49 49 50 50 50 51 51 52 52 52 52 52 52 52 51 51 51 51 51 51 51 51 51 52 52 52 53 54 56 59 58 58 58 60 60 61 62 63 63 64 65 66 67 68 69 70 70 70 71 71 71 72 74 76 78 78 79 80 81 82 83 84 85 86 87 89 90 91 92 93
39 40 42 43 44 45 45 45 46 45 45 46 46 46 47 47 48 48 48 49 50 50 51 51 51 51 51 50 50 49 49 48 48 48 48 49 49 49 49 49 50 51 51 51 52 52 54 57 58 57 58 60 61 62 62 63 64 65 66 67 68 69 70 72 72 73 74 74 73 74 76 78 80 81 82 83 84 85 86 87 88 89 91 92 93 95 96 97
40 42 43 44 44 45 45 44 45 45 45 46 46 46 47 47 48 48 49 49 50 50 49 49 49 48 48 47 47 47 46 46 46 46 47 47 47 48 48 48 49 50 51 51 52 53 54 57 59 59 60 62 63 64 65 66 67 68 69 70 71 72 73 75 77 77 78 78 78 78 80 82 84 85 86 87 88 89 90 91 93 94 95 96 98 99 100 101
42 43 44 44 44 44 43 44 44 45 45 45 46 46 47 47 48 48 48 47 47 46 45 45 45 44 44 44 44 44 44 44 45 45 46 46 47 49 49 50 51 52 53 54 55 56 57 59 62 63 63 65 67 68 69 70 71 72 72 73 75 76 77 78 81 82 82 83 83 82 83 85 87 89 90 91 92 93 94 95 96 97 98 100 101 102 103 104
42 42 42 42 43 43 43 43 44 44 45 45 46 46 46 46 45 45 44 43 43 42 42 42 41 41 42 42 42 42 42 43 45 46 47 48 49 51 52 53 54 55 56 57 58 59 60 62 64 66 66 67 69 70 71 73 74 75 75 76 78 78 79 80 82 83 84 85 85 85 84 86 88 89 91 92 93 94 95 96 97 98 99 100 102 103 104 105
41 41 41 41 42 42 42 43 44 44 44 45 44 44 43 42 41 40 40 40 39 39 39 39 39 40 40 41 42 42 43 44 46 48 49 50 51 53 54 55 56 57 58 59 60 61 62 63 64 66 67 68 70 71 72 73 74 75 75 76 78 79 80 81 81 83 84 85 85 85 85 84 86 87 89 90 91 92 94 95 95 96 97 99 100 102 103 104
40 40 41 41 41 42 42 43 43 43 42 42 40 39 39 38 38 37 37 37 37 37 38 38 39 40 41 42 43 44 45 46 48 49 51 52 53 54 55 56 57 58 59 59 60 61 62 64 64 65 66 67 68 69 70 71 72 73 73 74 75 76 77 78 78 79 81 82 83 83 83 83 83 85 86 87 89 90 91 92 93 94 95 96 98 99 100 101
39 40 40 41 41 42 42 41 40 39 38 37 36 36 36 36 36 36 36 36 37 37 38 39 39 40 42 43 44 45 47 49 50 52 53 54 54 55 55 56 57 57 58 58 59 59 60 61 62 63 64 65 66 66 67 67 68 69 70 71 71 72 73 74 75 75 77 78 79 80 81 81 81 82 84 85 86 87 88 90 91 92 93 94 96 97 98 99
38 39 40 40 40 39 38 37 36 35 35 35 35 35 35 35 35 35 36 36 37 37 38 39 40 41 42 44 46 48 49 51 52 53 53 54 54 54 54 55 55 55 55 55 56 56 57 57 58 59 60 61 63 64 65 66 67 67 68 69 70 71 71 72 73 73 74 75 76 78 78 79 79 80 82 83 84 85 86 87 88 89 91 92 93 94 95 96
38 38 38 37 36 35 34 33 33 34 34 34 34 35 35 35 35 35 36 36 37 37 39 40 41 43 45 47 49 50 51 52 53 53 53 53 53 53 52 52 52 53 53 53 53 54 54 55 55 56 56 57 58 59 61 62 64 65 66 67 68 69 70 70 71 72 73 74 74 76 76 77 77 78 80 81 82 83 84 85 85 87 88 89 90 91 92 93
36 35 34 33 33 32 33 33 33 34 34 34 34 34 34 34 34 34 35 36 37 38 40 42 44 47 48 50 51 52 53 54 53 53 52 51 51 50 50 50 50 51 51 51 51 52 53 53 54 55 55 56 57 57 58 59 61 62 63 64 65 66 67 68 69 70 71 72 72 74 75 75 76 77 78 79 80 81 82 82 83 84 86 87 87 88 89 90
32 31 31 31 32 32 33 34 34 34 34 34 33 33 33 33 34 35 36 37 39 41 44 46 48 50 51 53 54 55 55 54 53 52 52 51 50 50 49 49 49 49 49 50 50 51 52 52 53 54 55 56 57 58 59 60 60 61 62 63 64 65 65 66 67 68 68 69 69 71 72 73 73 74 75 76 77 78 79 80 81 82 83 84 85 86 86 87
29 30 30 31 33 33 34 34 33 33 32 32 32 32 33 33 34 36 38 40 42 45 47 49 51 53 55 56 57 57 56 55 53 52 51 50 49 48 48 47 47 47 48 48 49 49 50 51 52 53 55 56 57 59 60 61 63 64 65 66 67 67 67 68 69 69 69 69 69 69 71 71 72 73 73 74 75 76 77 78 79 80 81 82 82 83 83 84
30 31 32 33 33 32 32 31 31 31 31 31 32 33 34 35 36 38 40 42 45 47 49 51 53 55 56 56 56 55 54 53 51 50 49 48 47 47 47 47 47 48 48 48 49 50 51 52 54 55 56 57 58 60 61 62 64 65 65 66 67 68 68 68 68 68 68 68 68 68 69 70 71 72 72 73 73 74 75 76 76 77 77 78 78 78 79 79
31 31 31 31 31 30 30 31 31 32 32 33 34 35 36 37 39 40 42 44 46 48 50 52 53 53 54 53 53 52 52 51 50 50 49 49 49 48 49 49 49 50 50 50 50 51 51 52 53 53 54 55 56 57 58 59 60 61 62 63 64 65 66 66 65 64 64 65 66 66 67 68 69 70 71 71 71 72 73 73 73 74 74 74 74 75 75 76
30 29 29 29 29 30 31 32 33 34 35 35 36 37 38 39 40 42 44 45 47 49 50 50 50 51 52 52 52 52 52 51 51 50 50 49 49 49 49 49 49 48 48 48 47 47 47 48 49 50 50 51 52 53 53 54 56 57 58 59 61 62 64 65 64 62 62 62 63 63 64 65 66 66 67 69 69 70 70 71 71 72 72 72 73 73 74 74
28 28 29 30 31 32 33 34 35 36 36 36 37 38 39 40 42 43 45 46 47 48 48 48 49 50 51 51 51 51 51 51 50 50 49 48 48 47 47 46 46 45 45 44 44 44 44 44 45 46 46 47 48 50 51 51 52 53 54 55 57 59 61 63 63 61 61 61 61 61 62 62 63 64 65 66 67 68 69 69 69 70 70 70 71 71 72 72
Wind_Direction
227 229 232 236 237 235 233 232 231 233 235 237 237 238 240 244 249 252 255 256 256 256 255 254 254 255 254 253 253 253 253 252 252 253 253 254 254 255 256 256 256 257 257 257 258 259 259 260 261 261 262 262 262 262 262 262 262 263 263 264 264 264 264 265 265 265 266 267 267 268 269 269 270 271 272 272 272 273 273 273 273 273 272 272 272 273 273 274
227 228 229 232 237 240 238 237 235 234 235 237 238 240 240 240 242 246 249 252 255 257 258 258 259 259 259 259 259 258 258 257 257 257 258 258 258 259 259 260 260 260 260 260 261 261 262 263 263 263 263 264 263 263 263 264 264 265 265 266 266 267 267 267 267 267 268 268 269 269 270 271 271 272 272 273 273 273 273 273 273 273 274 274 274 275 275 276
228 230 231 231 233 237 240 240 241 240 239 239 240 242 243 242 242 243 245 246 248 252 255 257 258 259 260 260 260 260 260 261 262 262 262 263 263 263 264 265 266 266 266 266 266 267 267 267 267 266 266 267 267 267 267 267 268 268 269 270 270 270 269 269 269 269 269 269 270 270 271 271 272 272 273 273 273 273 274 274 274 274 275 275 275 276 276 276
229 231 233 234 234 235 237 239 241 243 243 243 244 244 244 245 245 245 246 247 248 249 251 253 254 256 257 258 259 259 259 259 260 261 261 262 262 263 264 264 265 266 267 268 269 269 268 268 267 266 266 267 267 267 268 268 269 270 270 270 270 270 270 270 270 270 270 270 271 271 272 272 273 273 273 273 273 273 274 274 274 274 275 275 276 276 276 276
231 233 234 236 237 237 238 238 239 241 243 245 246 247 247 248 249 248 248 250 251 252 253 254 254 255 255 256 257 257 258 258 258 258 259 260 261 262 263 263 263 263 263 265 266 266 266 266 266 266 266 266 266 267 268 269 270 270 270 270 270 271 271 271 271 271 271 271 271 272 272 272 272 272 273 273 273 273 274 274 274 275 275 275 276 276 276 277
233 234 236 238 239 240 241 240 239 240 242 244 245 247 248 249 251 251 252 253 253 254 255 257 258 258 259 259 259 260 260 260 261 261 261 262 263 265 266 267 266 265 264 264 265 265 266 266 266 266 267 267 267 267 268 268 269 269 269 269 269 269 270 270 270 271 271 271 271 271 271 272 272 272 272 273 273 274 274 274 275 275 275 275 276 276 277 277
236 237 238 239 241 242 244 244 243 242 242 243 244 245 246 248 250 251 253 254 255 256 257 258 259 260 261 262 262 263 263 263 263 264 264 264 265 266 266 267 267 268 267 267 267 267 267 267 267 267 267 267 267 267 267 267 267 267 268 268 268 268 268 269 270 270 270 270 271 271 271 271 271 272 272 273 273 273 274 274 274 275 275 275 276 276 276 276
238 239 240 241 243 244 246 247 248 248 247 246 246 246 246 247 248 249 250 252 253 254 256 257 258 259 260 261 261 262 263 263 263 264 264 264 264 264 264 265 266 266 267 267 267 267 267 267 267 267 267 267 267 267 267 267 267 267 268 268 268 269 269 269 270 270 270 270 271 271 271 271 271 272 272 273 273 273 274 274 274 275 275 275 276 276 275 275
241 242 242 243 244 246 247 249 250 251 252 252 251 251 250 250 250 250 250 251 251 252 253 255 256 257 257 258 258 258 259 260 261 261 262 262 262 263 263 264 264 265 266 266 267 267 267 267 267 267 268 268 268 268 268 268 268 268 269 269 270 270 270 270 271 271 271 272 272 272 272 272 272 272 273 273 273 273 274 274 274 275 275 275 275 275 275 275
243 243 244 245 246 247 248 250 251 252 254 255 256 256 256 256 256 256 255 255 255 255 256 256 257 257 258 258 258 259 259 260 260 260 261 261 262 262 263 264 265 265 266 267 268 268 269 269 269 269 269 269 269 270 270 270 270 270 271 271 272 272 272 273 273 273 274 274 274 274 274 274 274 274 274 274 274 274 275 275 275 275 275 275 275 276 276 276
246 246 247 247 248 249 250 251 252 253 255 256 257 258 259 260 260 261 261 261 261 261 261 261 261 261 262 263 263 263 263 264 264 264 264 265 265 265 266 266 267 268 268 269 269 270 270 271 271 271 271 271 271 271 271 271 272 272 272 273 273 273 274 274 274 274 275 275 275 275 275 276 276 276 275 275 275 275 275 275 275 275 275 275 275 275 276 276
249 249 250 251 251 252 253 253 254 255 256 257 258 259 260 261 262 263 264 264 265 265 265 266 266 266 266 267 267 267 267 268 268 268 269 269 269 269 269 269 269 270 270 271 271 271 271 272 272 272 272 272 272 272 272 272 273 273 273 273 273 273 274 274 274 275 275 275 275 275 275 275 276 275 275 275 275 275 275 275 275 275 275 275 275 275 276 276
252 253 254 255 256 257 257 257 257 258 258 259 260 261 262 263 264 264 265 266 267 267 268 268 268 269 269 269 269 269 270 270 270 270 271 271 271 271 271 271 271 271 271 271 272 272 272 272 272 272 272 272 272 273 273 273 274 274 274 274 274 274 274 275 275 275 276 276 276 276 276 276 276 276 276 276 276 276 276 276 276 276 276 276 275 276 276 276
254 255 256 257 258 258 259 260 260 261 261 262 263 264 265 265 266 266 267 268 268 269 269 269 270 270 269 269 270 270 270 270 270 271 271 271 271 271 271 271 271 271 271 271 272 272 272 272 272 272 272 273 273 273 274 274 275 275 275 275 276 276 276 276 277 277 277 277 277 277 277 277 277 277 277 277 277 276 276 276 276 276 276 276 275 275 275 275
255 256 257 257 258 259 260 262 263 264 265 266 267 267 268 268 268 269 269 270 270 270 270 270 270 270 270 270 270 270 270 271 271 271 270 271 271 271 271 271 271 271 272 272 272 272 272 272 272 272 273 273 273 274 275 276 276 276 276 277 277 277 278 278 278 278 278 277 278 278 278 278 278 278 277 277 277 276 276 276 276 275 275 275 275 275 275 275
258 258 258 259 260 262 263 265 266 268 269 269 269 270 270 270 270 270 270 271 271 270 270 270 270 270 270 270 270 271 271 271 271 271 271 271 271 271 271 272 272 272 272 273 273 273 273 273 273 273 274 274 275 276 276 277 277 277 278 278 278 278 278 278 278 278 278 278 277 277 277 277 277 277 277 276 276 276 276 276 275 275 275 275 275 275 274 274
261 261 261 262 263 265 266 268 269 270 271 271 271 271 271 270 271 271 271 271 271 271 271 271 271 271 271 271 271 271 272 272 272 272 272 272 272 272 272 273 273 273 273 273 274 274 274 274 274 275 275 276 277 277 277 278 278 278 278 278 278 278 278 278 278 278 278 277 277 277 277 277 277 276 276 276 276 275 275 275 275 275 275 275 275 275 274 274
263 264 264 265 266 267 268 270 271 272 271 271 271 271 271 272 272 272 273 273 273 273 273 273 273 273 273 273 273 273 273 273 273 273 273 273 273 274 274 274 275 275 275 275 275 275 275 276 276 276 277 278 278 278 278 278 278 278 278 278 278 278 278 278 278 278 278 278 278 278 277 277 277 277 276 276 275 275 275 275 275 275 275 275 275 275 275 275
265 265 266 267 268 269 270 271 272 273 273 273 273 273 273 273 274 274 274 275 275 276 276 277 276 276 275 275 275 275 274 274 274 275 276 276 276 277 277 277 277 277 276 276 276 276 277 277 277 277 278 278 278 278 278 279 279 279 279 279 279 279 279 279 279 278 278 278 278 278 278 278 277 277 276 276 276 276 276 275 275 275 275 274 274 274 274 274
268 268 269 270 271 272 273 274 275 275 275 276 276 277 277 277 277 278 278 279 278 279 279 278 278 277 277 277 277 277 277 277 277 277 278 278 278 278 278 278 278 278 278 278 278 278 278 278 278 278 279 279 279 279 279 280 280 280 280 280 280 280 280 279 279 279 279 279 278 278 278 278 278 277 277 277 277 277 276 276 275 275 275 274 274 274 274 274
276 276 276 277 277 278 279 279 279 279 278 279 280 281 282 282 282 281 281 280 279 278 278 278 278 279 279 279 279 279 279 279 279 279 280 280 280 280 281 281 280 280 280 280 280 280 280 280 280 280 280 281 281 281 281 282 282 281 281 281 280 280 280 280 280 280 279 279 279 279 279 278 278 278 278 278 278 277 276 275 275 275 274 274 274 274 274 274
284 284 283 283 283 282 282 282 282 281 281 281 281 281 281 281 281 280 280 279 278 277 278 278 278 279 279 279 279 280 280 281 281 282 282 283 283 283 283 283 283 283 283 283 282 282 282 282 282 282 282 282 282 282 282 282 282 282 282 281 281 281 281 281 280 280 279 279 279 279 278 278 279 279 279 279 278 277 277 276 276 275 275 275 274 274 274 274
292 290 289 288 287 287 287 286 285 284 283 282 282 281 280 280 280 279 279 279 279 279 279 278 278 278 279 279 280 281 282 283 284 284 285 286 286 286 286 285 285 285 285 284 284 284 283 283 283 282 282 282 282 283 283 283 283 283 282 282 282 282 282 282 281 281 280 280 280 279 278 279 280 280 279 279 278 278 278 278 277 277 276 276 275 275 275 275
298 297 295 294 293 292 292 292 290 288 285 284 283 282 281 281 281 281 280 280 279 279 279 279 279 279 280 281 282 284 284 285 286 287 287 287 287 287 287 286 286 286 285 285 285 284 284 284 284 283 283 283 283 284 284 284 284 284 284 283 283 283 283 283 282 281 281 281 281 280 279 280 280 279 279 279 278 278 278 278 278 277 277 276 276 276 275 275
300 300 299 297 295 294 295 296 296 292 290 288 287 286 286 285 284 283 282 281 281 281 280 280 281 282 283 284 285 285 286 287 288 289 289 289 288 288 288 287 287 286 286 286 286 286 286 285 285 285 285 285 285 285 285 285 285 285 285 284 284 283 283 283 282 281 281 281 281 280 280 280 279 279 279 279 279 279 278 278 277 277 276 276 276 276 276 276
303 302 301 300 299 298 300 301 300 298 296 294 291 289 288 287 286 285 284 283 283 282 282 282 283 284 284 285 286 287 288 289 289 289 290 290 289 289 289 288 288 287 287 287 287 287 287 286 286 286 286 286 285 285 285 285 285 284 284 284 283 283 282 282 282 281 281 281 280 280 280 279 277 278 279 279 278 278 278 277 276 276 276 275 275 275 275 275
309 307 307 307 306 305 305 304 301 299 296 293 291 289 289 288 287 286 285 285 285 284 284 285 285 286 286 287 288 288 289 290 290 290 291 291 291 290 290 289 289 288 288 288 288 288 287 287 287 287 286 286 286 285 285 285 284 284 283 283 283 282 282 282 282 282 281 281 281 281 280 278 278 278 278 278 278 277 277 276 276 275 275 275 275 275 275 275
312 311 311 310 309 308 306 303 299 297 295 294 293 292 291 290 290 289 288 288 287 287 287 288 288 288 289 289 290 290 291 291 292 292 292 292 291 291 290 290 290 289 289 289 289 289 288 288 288 287 287 286 286 285 285 284 284 284 283 283 283 282 282 282 282 282 281 281 281 280 279 279 279 279 278 278 277 277 276 276 276 276 276 276 276 276 276 276
312 312 312 311 309 307 304 301 299 299 298 297 296 294 293 293 292 291 291 290 290 290 290 290 290 290 290 291 292 292 292 293 293 293 293 293 292 291 291 291 290 290 290 290 290 289 289 289 288 288 288 287 287 286 286 285 285 284 284 284 283 283 283 283 283 282 282 282 282 280 280 280 280 279 279 278 277 276 276 276 276 276 276 276 276 276 276 276
312 312 311 309 308 306 305 304 302 301 300 298 297 296 295 294 294 294 294 293 293 293 293 293 293 293 293 293 294 294 294 294 294 294 293 293 293 293 292 292 292 292 291 291 290 290 290 289 289 289 288 288 288 288 287 287 286 286 285 285 285 285 284 284 284 283 283 283 282 281 281 281 281 280 279 278 277 277 277 277 277 277 277 277 277 277 277 277
311 310 310 309 309 308 307 306 304 302 301 300 299 298 298 297 297 297 297 297 297 296 296 296 296 296 296 296 295 296 296 295 295 294 294 293 293 293 292 292 292 292 292 291 291 290 289 289 289 288 288 288 288 287 287 287 286 286 286 286 285 285 285 285 285 285 284 284 283 283 282 282 282 282 280 279 279 279 279 279 278 278 279 279 279 279 279 279
310 310 310 311 310 309 308 306 304 303 302 301 301 301 301 300 300 299 299 299 299 299 299 299 298 298 298 297 297 297 296 296 295 295 295 294 294 293 293 293 293 293 293 293 292 292 291 290 289 289 289 289 288 288 288 287 287 287 286 286 286 285 285 286 285 285 285 285 284 284 284 283 283 282 281 280 280 280 280 280 280 280 280 280 280 280 280 280
310 311 311 310 309 308 306 305 304 303 303 303 303 303 302 302 302 302 301 301 301 301 301 300 300 300 299 299 299 298 298 297 296 296 295 295 295 295 295 295 295 295 294 294 294 293 293 292 292 291 291 291 290 290 289 289 288 288 288 287 287 286 286 286 286 285 285 285 285 285 284 284 284 283 283 282 281 281 281 281 281 281 281 281 281 281 280 280
311 311 310 309 308 307 306 305 305 305 305 305 304 304 304 304 303 303 303 303 303 302 302 301 301 301 300 300 299 299 298 298 298 297 297 297 297 297 297 297 296 296 295 294 294 293 293 293 294 293 293 293 292 291 291 290 290 290 289 289 289 288 288 287 286 286 286 286 286 286 285 285 285 284 284 283 283 282 282 282 282 282 282 281 281 281 281 280
311 309 308 307 307 307 306 306 306 306 306 306 305 305 305 305 305 305 305 305 304 304 303 303 302 302 301 301 300 300 300 299 300 300 300 300 300 300 300 300 299 298 298 297 297 296 295 295 295 295 295 294 293 292 292 292 291 291 291 290 290 290 289 289 288 287 286 286 286 286 286 285 285 284 284 284 284 284 283 283 283 282 282 282 281 281 281 281
309 308 307 307 308 307 307 308 307 308 307 307 307 307 307 307 307 307 306 306 306 305 304 304 303 303 302 302 301 302 302 303 303 304 304 304 303 303 303 302 301 301 300 299 299 298 297 297 296 296 296 295 294 293 293 292 292 291 291 291 290 290 290 289 288 288 287 286 286 285 285 285 285 285 285 284 284 284 284 283 283 283 282 282 282 282 281 281
308 308 308 308 309 309 309 309 309 309 309 309 309 309 309 309 309 308 308 307 307 306 306 305 305 305 305 305 305 306 307 307 307 307 306 306 305 305 304 303 303 302 301 301 300 299 298 297 297 297 296 295 294 294 293 293 292 292 291 291 290 290 290 289 289 288 287 287 286 286 286 285 285 285 285 284 284 284 284 284 283 283 283 282 282 282 282 281
308 309 309 310 310 311 311 311 311 312 312 312 312 311 311 311 310 309 309 308 308 307 307 307 308 308 309 310 311 311 311 311 310 310 309 308 307 307 306 306 305 304 303 302 301 300 299 298 298 297 297 296 295 295 294 293 293 292 292 291 291 291 290 290 289 289 288 287 287 286 286 286 286 285 285 285 285 284 284 284 283 283 283 283 282 282 282 282
309 310 311 312 313 313 314 314 314 314 314 313 313 312 312 311 311 310 310 310 310 310 311 311 312 313 313 314 314 314 314 314 313 312 312 311 310 309 309 308 307 305 304 303 301 300 299 298 297 296 296 295 295 294 294 293 293 292 291 291 290 290 290 290 289 289 289 288 287 287 287 286 286 286 286 285 285 285 284 284 283 283 283 283 283 282 282 282
311 313 314 314 315 316 316 316 316 315 315 314 314 313 313 312 312 312 313 313 314 314 315 316 316 317 317 317 317 317 317 316 316 315 314 313 312 311 309 308 306 305 303 302 301 299 298 297 297 296 296 295 295 294 294 294 293 293 293 292 292 291 291 290 290 290 289 289 288 288 287 286 286 286 286 286 285 285 284 284 284 284 283 283 283 283 283 283
314 316 317 317 318 318 318 318 317 317 316 316 315 315 315 315 316 317 317 318 319 320 320 320 321 321 321 321 321 321 320 319 318 316 315 313 312 311 309 308 306 305 304 303 302 301 300 299 298 297 297 297 296 296 296 295 295 294 294 294 293 293 292 292 291 291 291 291 290 290 289 288 287 287 287 286 286 286 286 285 285 285 285 284 284 284 283 283
318 320 320 320 321 320 320 320 319 319 318 318 318 319 319 320 322 322 323 324 324 324 324 325 325 325 325 324 324 323 322 320 319 317 316 315 313 312 311 309 308 307 305 305 304 303 302 301 300 300 299 298 298 297 297 296 296 296 295 294 294 293 293 292 292 292 291 291 291 291 290 290 289 288 288 287 287 287 286 286 286 285 285 285 284 284 283 283
322 322 322 322 322 322 322 321 321 321 321 322 323 324 325 326 327 328 328 328 328 328 329 329 328 328 327 326 325 324 323 322 321 320 319 317 316 315 313 311 310 309 308 307 306 305 304 303 303 302 302 301 301 300 299 299 298 298 297 297 296 295 295 294 294 293 293 292 292 292 291 291 291 290 289 289 288 288 287 287 287 286 286 285 285 285 284 284
324 324 324 324 324 323 323 324 325 326 327 329 329 330 331 331 332 332 332 332 332 332 331 331 330 329 329 329 328 327 327 326 324 323 322 320 319 317 315 314 313 311 310 309 308 307 307 306 305 305 304 304 304 303 303 302 302 301 300 300 299 298 298 297 297 296 295 294 294 293 293 293 292 292 291 290 290 289 289 288 288 288 287 287 287 286 286 286
326 326 326 326 326 327 328 330 331 332 333 334 334 335 335 336 336 336 335 335 334 334 333 333 333 333 333 332 331 330 330 329 328 326 325 323 322 320 319 317 316 315 314 313 312 311 310 309 309 307 306 305 305 304 303 303 303 303 302 302 302 301 301 300 299 299 298 297 297 296 296 295 295 294 293 292 292 291 291 290 290 289 289 288 288 288 288 287
327 328 329 330 332 333 335 336 337 337 338 338 338 339 339 338 338 338 337 337 337 337 337 337 337 337 336 335 335 334 334 333 331 330 328 327 325 324 323 322 321 320 319 318 317 316 315 314 313 312 311 310 310 308 307 307 306 306 305 305 304 304 304 303 302 301 301 300 300 300 299 298 297 296 295 295 294 293 293 293 292 291 291 290 290 290 290 289
330 332 334 336 338 339 340 341 341 341 341 341 341 341 341 341 341 340 341 341 341 341 342 341 340 339 339 339 339 338 337 335 334 333 332 331 330 329 328 327 326 325 324 323 322 321 320 319 318 317 316 315 315 314 313 313 312 311 311 310 309 309 308 307 306 305 304 304 303 302 301 300 299 298 297 296 296 296 295 295 294 294 293 293 293 293 293 292
336 338 340 342 343 343 343 343 343 343 343 344 344 344 344 344 344 345 345 346 346 345 344 343 343 343 343 342 341 340 339 338 338 337 336 335 334 334 333 332 331 330 329 328 326 325 324 323 322 322 322 322 321 320 320 319 318 318 317 316 315 314 313 312 311 310 309 309 307 305 304 303 302 301 300 299 298 298 297 297 296 296 296 295 295 295 294 294
343 344 345 346 345 345 344 345 345 346 347 348 348 348 348 348 349 349 350 349 348 347 346 346 346 345 344 343 342 342 341 341 341 340 339 339 339 338 338 338 337 336 335 333 333 332 331 330 329 329 328 327 325 324 323 322 321 320 318 317 316 315 314 313 312 312 311 310 308 307 306 305 304 303 302 301 300 300 299 299 298 298 297 297 296 296 295 295
347 347 347 346 346 346 348 349 351 352 352 352 352 352 352 353 353 353 353 351 350 350 350 349 348 346 345 344 344 344 344 345 345 345 345 345 345 345 345 345 344 342 341 340 339 337 336 335 333 332 331 329 328 326 325 323 321 320 319 319 318 316 315 314 313 313 312 310 309 309 308 307 306 305 304 304 303 303 302 301 301 301 300 300 299 299 298 298
347 347 347 348 350 352 354 355 356 356 355 355 355 355 356 356 356 355 355 354 353 353 352 351 349 347 347 347 347 348 350 351 351 351 351 351 351 351 351 349 348 346 345 343 342 341 340 338 336 334 333 332 330 328 327 325 324 324 323 322 321 320 318 316 316 317 315 313 312 311 310 309 308 308 307 307 307 306 305 305 305 305 304 304 304 303 303 302
348 350 352 354 357 357 358 358 358 358 358 358 358 359 359 359 358 357 357 356 356 356 354 353 351 351 351 351 353 355 356 356 356 356 356 356 356 355 354 353 351 350 348 345 344 344 342 341 339 338 337 336 334 332 332 331 331 330 328 327 326 325 322 320 320 321 319 317 317 315 314 314 313 312 312 311 310 310 309 309 308 308 307 307 306 306 305 305
Height
10740 10741 10742 10743 10745 10747 10749 10750 10751 10751 10752 10753 10754 10755 10755 10756 10756 10757 10757 10757 10758 10759 10760 10760 10761 10761 10762 10762 10762 10762 10762 10762 10761 10761 10761 10761 10761 10760 10760 10759 10759 10759 10758 10757 10756 10755 10754 10754 10753 10752 10751 10750 10749 10748 10747 10747 10745 10744 10742 10740 10736 10734 10734 10733 10732 10730 10727 10724 10721 10719 10718 10718 10718 10719 10717 10715 10714 10713 10712 10711 10708 10706 10706 10704 10702 10701 10700 10698
10738 10740 10740 10741 10742 10743 10745 10747 10748 10749 10750 10751 10752 10752 10753 10754 10754 10754 10754 10754 10754 10755 10755 10756 10756 10757 10757 10757 10758 10758 10758 10757 10757 10757 10756 10756 10756 10755 10755 10754 10754 10753 10753 10752 10750 10749 10749 10748 10748 10747 10745 10744 10743 10741 10741 10740 10739 10737 10735 10733 10729 10728 10727 10725 10724 10722 10720 10717 10713 10711 10710 10710 10711 10711 10710 10706 10705 10704 10703 10701 10699 10697 10696 10695 10693 10693 10691 10688
10736 10737 10738 10739 10740 10741 10742 10743 10744 10746 10747 10748 10749 10749 10750 10751 10752 10751 10751 10751 10751 10751 10751 10752 10752 10752 10752 10752 10753 10752 10752 10752 10752 10751 10751 10750 10750 10750 10749 10748 10748 10747 10746 10745 10744 10743 10742 10742 10741 10740 10738 10737 10735 10734 10733 10732 10731 10729 10727 10724 10721 10720 10718 10716 10715 10714 10711 10708 10706 10704 10702 10702 10703 10703 10701 10698 10697 10695 10693 10691 10689 10688 10686 10684 10684 10683 10681 10678
10733 10734 10735 10737 10738 10739 10739 10740 10741 10742 10744 10745 10745 10746 10747 10748 10748 10748 10748 10748 10748 10748 10748 10748 10748 10748 10748 10748 10748 10748 10747 10747 10747 10746 10745 10745 10745 10744 10744 10743 10742 10741 10740 10739 10738 10736 10736 10735 10734 10733 10731 10730 10728 10727 10726 10724 10723 10722 10718 10716 10713 10711 10709 10708 10707 10705 10703 10700 10698 10696 10695 10696 10695 10694 10692 10690 10688 10686 10683 10681 10679 10677 10675 10674 10673 10672 10671 10668
10730 10731 10732 10734 10735 10736 10737 10738 10738 10739 10740 10741 10741 10742 10743 10744 10744 10744 10744 10744 10744 10744 10744 10744 10744 10744 10744 10743 10743 10743 10742 10742 10742 10741 10741 10740 10739 10739 10738 10737 10736 10735 10734 10733 10731 10730 10729 10727 10726 10725 10724 10722 10721 10719 10718 10716 10715 10713 10710 10707 10705 10703 10701 10699 10697 10696 10694 10692 10690 10688 10687 10688 10687 10684 10682 10680 10678 10677 10674 10671 10669 10666 10663 10662 10662 10661 10659 10657
10727 10728 10729 10730 10731 10733 10734 10735 10736 10736 10736 10737 10738 10738 10739 10739 10740 10740 10740 10741 10740 10740 10740 10739 10739 10739 10739 10739 10738 10738 10737 10737 10736 10736 10735 10735 10734 10732 10731 10730 10729 10728 10727 10726 10725 10723 10721 10720 10719 10718 10716 10715 10713 10711 10710 10708 10707 10705 10701 10698 10697 10695 10692 10690 10688 10687 10685 10683 10682 10680 10679 10679 10677 10675 10673 10670 10668 10667 10664 10661 10659 10656 10652 10650 10649 10649 10648 10645
10724 10725 10726 10727 10728 10729 10730 10732 10732 10733 10733 10734 10734 10734 10735 10735 10735 10735 10736 10736 10736 10736 10735 10735 10735 10735 10734 10734 10733 10732 10732 10731 10730 10730 10729 10728 10727 10726 10725 10723 10722 10721 10720 10718 10717 10716 10714 10713 10711 10710 10708 10706 10705 10703 10702 10700 10699 10697 10693 10690 10689 10687 10684 10681 10679 10677 10675 10674 10673 10672 10671 10669 10668 10666 10664 10661 10660 10657 10654 10651 10648 10645 10642 10639 10637 10635 10634 10633
10721 10722 10723 10724 10725 10726 10727 10728 10729 10729 10730 10730 10731 10731 10731 10731 10731 10731 10731 10731 10731 10731 10731 10730 10730 10730 10729 10729 10727 10726 10726 10725 10725 10724 10723 10722 10720 10719 10718 10717 10715 10714 10712 10711 10709 10708 10706 10705 10704 10702 10700 10698 10696 10695 10693 10692 10690 10687 10684 10681 10679 10677 10675 10672 10669 10667 10665 10664 10663 10662 10661 10659 10657 10656 10654 10652 10650 10647 10643 10640 10637 10633 10630 10628 10625 10622 10620 10618
10718 10719 10720 10721 10722 10723 10724 10724 10725 10725 10725 10726 10726 10726 10726 10726 10726 10726 10726 10726 10726 10726 10726 10725 10725 10724 10724 10723 10722 10720 10719 10719 10719 10718 10717 10715 10714 10713 10711 10710 10709 10707 10705 10703 10702 10700 10699 10697 10696 10694 10692 10689 10687 10685 10683 10683 10681 10678 10675 10672 10669 10667 10664 10662 10659 10656 10654 10653 10652 10650 10648 10647 10646 10645 10644 10642 10639 10635 10632 10629 10626 10622 10619 10615 10611 10608 10605 10603
10715 10716 10717 10718 10718 10719 10719 10720 10720 10720 10721 10721 10721 10721 10721 10721 10722 10721 10721 10721 10721 10721 10721 10720 10720 10719 10718 10717 10716 10715 10713 10713 10713 10712 10710 10709 10708 10706 10705 10703 10702 10700 10698 10696 10694 10692 10690 10689 10687 10685 10683 10680 10677 10676 10674 10673 10671 10668 10666 10663 10659 10656 10653 10651 10648 10645 10643 10642 10640 10637 10635 10634 10634 10633 10632 10630 10626 10622 10620 10617 10614 10611 10607 10603 10599 10595 10591 10588
10712 10713 10714 10714 10715 10715 10716 10716 10716 10716 10716 10716 10716 10716 10716 10716 10716 10716 10716 10715 10715 10715 10715 10714 10714 10713 10712 10711 10710 10709 10707 10706 10705 10704 10703 10702 10701 10699 10698 10696 10694 10692 10690 10688 10686 10684 10682 10680 10678 10676 10673 10670 10668 10666 10664 10662 10661 10659 10656 10653 10649 10645 10642 10639 10637 10634 10631 10630 10628 10624 10622 10621 10621 10619 10617 10616 10613 10610 10607 10604 10601 10598 10594 10591 10587 10583 10579 10576
10710 10710 10711 10711 10711 10712 10712 10712 10712 10712 10712 10712 10712 10712 10711 10711 10711 10711 10710 10710 10709 10709 10709 10708 10708 10707 10706 10704 10703 10701 10700 10699 10698 10696 10695 10694 10693 10691 10689 10688 10686 10684 10682 10680 10677 10675 10673 10670 10667 10665 10663 10660 10658 10655 10654 10652 10650 10648 10645 10642 10638 10634 10632 10629 10625 10623 10621 10619 10616 10612 10610 10610 10608 10605 10604 10602 10600 10598 10595 10592 10589 10585 10582 10579 10575 10572 10568 10564
10707 10708 10708 10708 10709 10709 10709 10709 10709 10709 10708 10708 10708 10708 10707 10707 10706 10706 10705 10704 10704 10703 10702 10702 10701 10700 10699 10698 10696 10694 10693 10691 10690 10689 10687 10686 10684 10682 10680 10679 10677 10675 10673 10671 10668 10666 10663 10660 10658 10655 10652 10650 10647 10645 10644 10642 10639 10637 10633 10630 10626 10622 10621 10619 10615 10612 10609 10607 10604 10600 10598 10598 10596 10593 10591 10589 10587 10585 10582 10579 10576 10573 10569 10566 10563 10559 10556 10552
10705 10706 10706 10706 10706 10706 10706 10706 10705 10705 10705 10705 10704 10704 10703 10702 10702 10701 10700 10699 10698 10698 10696 10695 10695 10694 10692 10691 10689 10687 10685 10684 10683 10682 10680 10678 10676 10674 10672 10670 10669 10666 10664 10662 10659 10657 10654 10651 10649 10646 10642 10640 10637 10635 10635 10632 10630 10626 10621 10618 10615 10611 10609 10607 10604 10601 10598 10594 10591 10587 10586 10586 10583 10580 10579 10576 10574 10571 10568 10566 10563 10560 10557 10554 10551 10547 10544 10540
10703 10704 10704 10704 10704 10703 10703 10703 10702 10702 10702 10701 10701 10700 10699 10698 10697 10696 10695 10694 10693 10692 10691 10690 10689 10687 10686 10684 10682 10681 10679 10677 10676 10674 10673 10671 10669 10667 10664 10662 10661 10658 10655 10653 10651 10648 10646 10643 10640 10637 10633 10630 10628 10627 10625 10623 10619 10614 10610 10609 10605 10600 10598 10596 10592 10589 10586 10582 10579 10575 10574 10574 10571 10568 10566 10563 10560 10558 10556 10553 10550 10547 10544 10541 10538 10535 10532 10529
10701 10701 10701 10701 10701 10701 10700 10700 10700 10699 10699 10698 10697 10696 10695 10694 10693 10692 10691 10690 10689 10687 10686 10685 10683 10682 10680 10678 10677 10675 10673 10671 10669 10667 10666 10664 10662 10660 10657 10654 10652 10651 10648 10645 10642 10640 10637 10634 10631 10627 10624 10622 10620 10618 10616 10613 10608 10604 10601 10598 10594 10589 10587 10584 10581 10578 10574 10571 10568 10565 10563 10562 10560 10557 10554 10551 10548 10545 10543 10541 10538 10535 10532 10529 10526 10522 10519 10516
10699 10699 10699 10699 10699 10698 10698 10697 10697 10696 10695 10695 10694 10693 10692 10691 10689 10688 10687 10686 10684 10682 10681 10680 10678 10677 10675 10673 10671 10669 10667 10665 10663 10661 10659 10657 10655 10653 10650 10647 10644 10643 10640 10637 10633 10631 10628 10625 10622 10618 10616 10613 10611 10608 10606 10603 10599 10595 10591 10587 10583 10579 10576 10573 10570 10567 10563 10559 10556 10554 10552 10550 10548 10545 10543 10540 10537 10534 10531 10529 10526 10523 10519 10516 10513 10509 10506 10503
10697 10697 10697 10697 10696 10696 10695 10694 10694 10693 10692 10691 10690 10689 10688 10687 10685 10684 10683 10681 10680 10678 10676 10675 10673 10672 10669 10667 10665 10663 10661 10658 10656 10654 10651 10649 10647 10645 10643 10640 10637 10634 10632 10629 10626 10622 10619 10616 10612 10609 10607 10604 10601 10598 10596 10593 10588 10585 10581 10577 10573 10569 10565 10562 10559 10555 10551 10548 10545 10543 10540 10539 10536 10533 10531 10528 10525 10522 10520 10517 10515 10511 10508 10504 10500 10497 10493 10490
10695 10695 10695 10694 10694 10693 10692 10692 10691 10690 10688 10687 10686 10685 10684 10683 10681 10680 10679 10677 10675 10673 10671 10669 10667 10665 10663 10660 10659 10657 10654 10652 10649 10647 10645 10642 10640 10638 10635 10633 10630 10626 10624 10621 10618 10614 10611 10608 10603 10600 10598 10595 10592 10588 10585 10582 10578 10575 10571 10567 10562 10558 10555 10552 10548 10545 10540 10537 10535 10532 10529 10527 10524 10522 10519 10516 10513 10511 10509 10506 10503 10500 10497 10493 10490 10486 10483 10479
10693 10693 10692 10692 10691 10690 10690 10689 10688 10687 10685 10684 10683 10681 10680 10678 10677 10676 10674 10672 10670 10668 10666 10663 10661 10659 10657 10654 10652 10650 10648 10645 10643 10640 10638 10635 10633 10630 10627 10625 10622 10618 10615 10612 10609 10605 10602 10599 10595 10591 10588 10584 10582 10578 10575 10572 10568 10564 10560 10556 10552 10547 10544 10541 10538 10534 10530 10526 10524 10521 10518 10515 10512 10510 10508 10505 10503 10500 10497 10495 10492 10489 10485 10482 10479 10475 10472 10469
10691 10691 10690 10689 10689 10688 10687 10686 10685 10684 10682 10681 10679 10678 10676 10674 10672 10671 10669 10667 10664 10662 10660 10658 10655 10653 10651 10648 10646 10644 10641 10639 10636 10633 10631 10628 10625 10622 10619 10616 10614 10610 10607 10604 10600 10596 10592 10589 10585 10582 10578 10574 10571 10568 10564 10561 10557 10553 10549 10545 10541 10537 10534 10531 10528 10524 10519 10516 10515 10512 10508 10505 10502 10500 10498 10495 10492 10489 10487 10484 10481 10478 10475 10472 10468 10465 10461 10457
10690 10689 10688 10687 10686 10685 10684 10683 10682 10680 10679 10677 10675 10674 10672 10670 10668 10666 10663 10661 10659 10657 10655 10652 10650 10647 10644 10642 10639 10637 10634 10632 10629 10626 10623 10621 10618 10614 10611 10608 10605 10601 10598 10594 10591 10587 10583 10579 10575 10571 10568 10564 10561 10557 10554 10551 10546 10542 10538 10534 10531 10527 10523 10521 10518 10514 10510 10507 10506 10504 10499 10496 10495 10492 10489 10485 10482 10479 10476 10474 10471 10468 10465 10461 10458 10454 10450 10446
10687 10687 10686 10685 10684 10682 10681 10680 10678 10677 10675 10673 10671 10669 10667 10665 10663 10661 10658 10656 10654 10652 10649 10646 10643 10641 10638 10636 10633 10630 10628 10625 10622 10619 10616 10613 10610 10606 10603 10599 10596 10592 10589 10585 10581 10577 10573 10569 10565 10561 10557 10554 10550 10547 10543 10540 10536 10532 10528 10524 10521 10518 10514 10511 10509 10504 10501 10499 10498 10494 10490 10490 10489 10484 10480 10476 10472 10469 10466 10464 10461 10457 10454 10450 10446 10443 10439 10435
10685 10684 10683 10682 10681 10679 10678 10676 10675 10673 10671 10669 10667 10665 10663 10661 10658 10656 10653 10651 10648 10646 10643 10640 10637 10634 10632 10629 10627 10624 10621 10618 10615 10612 10609 10606 10602 10598 10595 10590 10587 10583 10579 10576 10572 10568 10564 10559 10555 10551 10548 10544 10541 10537 10533 10530 10526 10522 10519 10515 10512 10509 10505 10502 10500 10496 10493 10491 10489 10483 10481 10483 10481 10475 10471 10467 10463 10460 10457 10453 10450 10446 10442 10438 10435 10431 10428 10425
10683 10682 10680 10679 10677 10676 10675 10673 10671 10669 10667 10665 10663 10661 10658 10656 10654 10651 10648 10645 10643 10640 10637 10634 10631 10628 10626 10623 10620 10618 10614 10611 10607 10604 10600 10597 10593 10590 10586 10582 10578 10574 10570 10566 10562 10558 10555 10550 10547 10543 10539 10536 10532 10529 10525 10521 10518 10513 10510 10507 10504 10501 10497 10493 10491 10487 10485 10484 10480 10474 10472 10475 10472 10466 10462 10458 10454 10451 10447 10442 10438 10434 10430 10426 10423 10420 10417 10414
10680 10679 10678 10676 10674 10673 10671 10670 10668 10665 10663 10661 10659 10656 10654 10651 10648 10646 10643 10640 10637 10634 10631 10629 10625 10622 10619 10616 10613 10610 10607 10603 10600 10596 10592 10588 10585 10581 10577 10573 10569 10565 10561 10557 10553 10549 10545 10542 10538 10535 10531 10527 10523 10520 10516 10513 10509 10505 10501 10498 10495 10492 10488 10485 10481 10477 10476 10474 10471 10467 10462 10461 10463 10460 10454 10448 10445 10441 10436 10430 10426 10422 10418 10415 10412 10409 10406 10403
10677 10676 10674 10673 10671 10669 10668 10666 10664 10661 10659 10657 10654 10652 10649 10646 10643 10640 10637 10634 10631 10628 10625 10622 10619 10615 10612 10609 10605 10603 10600 10596 10592 10587 10583 10580 10576 10572 10568 10564 10560 10557 10553 10549 10544 10540 10537 10533 10529 10526 10522 10519 10515 10511 10508 10504 10501 10497 10493 10490 10486 10483 10479 10477 10472 10469 10466 10464 10463 10460 10450 10446 10453 10454 10446 10439 10434 10430 10424 10418 10414 10410 10407 10404 10400 10397 10395 10392
10674 10672 10671 10669 10667 10665 10663 10661 10659 10656 10654 10651 10648 10646 10643 10640 10637 10634 10631 10628 10624 10621 10619 10616 10612 10608 10604 10601 10597 10594 10591 10588 10584 10579 10575 10571 10568 10564 10560 10556 10552 10548 10544 10540 10536 10532 10528 10524 10521 10517 10514 10510 10506 10502 10499 10496 10491 10488 10484 10480 10477 10474 10471 10467 10464 10460 10456 10454 10454 10449 10439 10435 10441 10444 10436 10429 10424 10418 10412 10407 10403 10399 10396 10392 10389 10386 10383 10380
10671 10669 10667 10665 10662 10660 10658 10656 10654 10651 10648 10646 10643 10640 10637 10634 10631 10628 10625 10621 10618 10614 10612 10608 10605 10601 10598 10593 10589 10586 10583 10579 10576 10571 10567 10563 10559 10556 10552 10548 10544 10540 10536 10532 10528 10524 10520 10516 10512 10508 10504 10501 10497 10493 10490 10486 10482 10478 10475 10471 10468 10465 10462 10458 10455 10451 10446 10445 10443 10436 10429 10425 10429 10432 10425 10417 10413 10406 10401 10396 10392 10389 10385 10382 10378 10374 10371 10368
10667 10665 10663 10660 10658 10655 10653 10651 10648 10645 10643 10640 10637 10634 10631 10628 10625 10621 10618 10614 10611 10607 10604 10601 10597 10593 10590 10586 10582 10578 10575 10571 10568 10564 10560 10556 10551 10547 10543 10539 10536 10531 10527 10524 10519 10515 10511 10507 10503 10499 10495 10491 10488 10484 10480 10476 10472 10469 10465 10461 10458 10454 10451 10449 10445 10440 10436 10436 10431 10424 10420 10415 10416 10421 10414 10404 10401 10396 10390 10386 10382 10378 10374 10371 10367 10363 10360 10357
10663 10661 10658 10656 10653 10650 10648 10645 10642 10640 10637 10634 10631 10628 10625 10622 10618 10615 10611 10607 10604 10600 10597 10594 10590 10586 10582 10579 10575 10571 10567 10563 10560 10556 10552 10549 10545 10541 10536 10532 10528 10524 10520 10515 10511 10507 10503 10499 10495 10491 10487 10483 10479 10475 10471 10467 10463 10459 10455 10452 10449 10445 10442 10440 10435 10429 10425 10424 10420 10414 10410 10405 10404 10407 10401 10392 10389 10385 10380 10376 10371 10368 10364 10360 10356 10352 10349 10345
10659 10656 10654 10651 10648 10645 10643 10640 10637 10634 10631 10628 10625 10621 10618 10615 10611 10608 10604 10601 10597 10593 10589 10586 10583 10579 10575 10571 10567 10564 10560 10556 10553 10549 10545 10541 10537 10533 10529 10525 10521 10516 10512 10506 10500 10496 10492 10489 10486 10483 10479 10475 10471 10467 10462 10459 10455 10451 10447 10442 10440 10436 10433 10431 10426 10420 10416 10413 10410 10405 10399 10396 10394 10392 10388 10384 10379 10374 10369 10365 10361 10357 10353 10349 10345 10341 10338 10334
10655 10652 10649 10646 10643 10640 10638 10635 10631 10628 10625 10622 10619 10615 10612 10608 10604 10601 10597 10594 10590 10586 10583 10579 10575 10572 10568 10564 10560 10556 10552 10549 10545 10541 10537 10533 10529 10525 10521 10517 10513 10509 10504 10499 10493 10487 10481 10478 10476 10473 10470 10466 10462 10458 10454 10450 10446 10442 10438 10434 10430 10426 10424 10423 10418 10412 10408 10403 10401 10396 10389 10386 10383 10378 10375 10373 10369 10364 10359 10355 10351 10347 10343 10338 10334 10330 10326 10322
10650 10647 10644 10641 10638 10635 10632 10629 10626 10623 10619 10616 10613 10609 10605 10602 10598 10594 10591 10587 10584 10580 10576 10572 10569 10565 10561 10557 10553 10549 10545 10542 10538 10534 10530 10525 10521 10518 10514 10510 10506 10501 10497 10493 10488 10482 10475 10471 10468 10465 10462 10458 10453 10450 10445 10441 10437 10433 10429 10425 10421 10416 10414 10413 10410 10404 10399 10395 10392 10386 10380 10376 10372 10367 10364 10360 10356 10353 10349 10345 10341 10336 10332 10327 10322 10318 10314 10309
10646 10643 10640 10636 10633 10630 10627 10624 10620 10617 10613 10610 10606 10603 10599 10596 10592 10588 10584 10581 10577 10574 10570 10566 10562 10559 10555 10551 10547 10543 10539 10535 10531 10527 10522 10518 10514 10510 10506 10502 10498 10494 10490 10486 10482 10476 10469 10464 10462 10459 10455 10450 10445 10441 10438 10433 10429 10425 10421 10416 10412 10407 10403 10401 10399 10394 10390 10387 10383 10377 10370 10366 10361 10357 10354 10348 10344 10341 10337 10334 10330 10325 10320 10315 10310 10306 10301 10297
10641 10638 10635 10632 10628 10625 10621 10618 10614 10611 10608 10604 10601 10597 10593 10590 10586 10582 10578 10574 10571 10567 10563 10560 10556 10552 10549 10545 10541 10537 10533 10529 10525 10520 10516 10512 10507 10504 10500 10495 10491 10487 10483 10479 10475 10470 10463 10456 10454 10452 10448 10442 10438 10433 10430 10425 10421 10417 10413 10408 10403 10398 10394 10390 10387 10383 10378 10376 10374 10368 10361 10355 10349 10347 10343 10338 10334 10330 10325 10321 10317 10312 10307 10302 10297 10293 10288 10284
10636 10633 10630 10627 10623 10620 10616 10613 10609 10605 10602 10598 10595 10591 10588 10584 10580 10577 10573 10569 10565 10561 10557 10553 10550 10546 10542 10538 10535 10531 10527 10523 10519 10515 10510 10506 10501 10497 10494 10489 10485 10480 10476 10473 10468 10464 10458 10450 10446 10444 10440 10433 10429 10425 10421 10417 10412 10407 10403 10399 10394 10389 10384 10378 10374 10371 10366 10363 10362 10358 10352 10344 10338 10335 10331 10326 10321 10317 10312 10308 10303 10299 10294 10288 10283 10279 10274 10269
10632 10629 10625 10622 10618 10614 10611 10607 10604 10600 10596 10593 10589 10586 10582 10578 10575 10571 10567 10564 10560 10556 10552 10548 10544 10540 10536 10532 10528 10525 10521 10517 10513 10508 10504 10500 10495 10490 10487 10483 10478 10474 10469 10465 10461 10456 10452 10444 10437 10435 10431 10424 10419 10415 10410 10406 10402 10397 10393 10388 10383 10379 10374 10367 10361 10358 10354 10350 10348 10346 10340 10332 10326 10322 10318 10313 10308 10303 10299 10294 10289 10284 10279 10274 10268 10263 10259 10255
10627 10624 10620 10616 10613 10609 10606 10602 10599 10595 10591 10588 10584 10581 10577 10573 10570 10566 10562 10559 10555 10551 10547 10543 10539 10535 10531 10528 10524 10520 10516 10511 10507 10502 10498 10494 10489 10484 10480 10476 10472 10467 10462 10457 10453 10448 10444 10438 10430 10426 10422 10416 10410 10405 10400 10395 10391 10387 10382 10378 10372 10368 10364 10357 10350 10344 10341 10337 10334 10333 10329 10321 10314 10308 10303 10299 10294 10289 10284 10279 10274 10269 10264 10259 10253 10248 10243 10239
10623 10619 10616 10612 10608 10605 10601 10598 10594 10591 10587 10583 10580 10576 10572 10569 10565 10561 10558 10554 10550 10546 10543 10539 10535 10531 10527 10523 10519 10515 10511 10507 10501 10497 10492 10488 10483 10478 10473 10468 10463 10459 10454 10449 10444 10439 10435 10430 10423 10416 10412 10407 10401 10396 10392 10385 10380 10375 10371 10366 10360 10355 10351 10346 10339 10332 10327 10323 10319 10317 10316 10310 10302 10296 10290 10285 10280 10274 10269 10264 10259 10254 10249 10244 10238 10232 10227 10222
10618 10615 10611 10608 10604 10600 10597 10593 10590 10586 10582 10579 10575 10572 10568 10565 10561 10557 10554 10550 10546 10542 10538 10535 10531 10527 10523 10519 10515 10511 10506 10502 10497 10491 10486 10481 10477 10471 10466 10461 10455 10450 10445 10440 10435 10430 10425 10420 10414 10408 10402 10397 10391 10386 10381 10376 10370 10365 10361 10355 10349 10343 10337 10332 10327 10321 10314 10309 10304 10300 10298 10295 10290 10283 10277 10271 10265 10259 10254 10249 10244 10239 10235 10229 10223 10217 10211 10206
10614 10610 10607 10603 10600 10596 10593 10589 10585 10582 10578 10575 10571 10568 10564 10561 10557 10554 10550 10546 10542 10538 10534 10531 10527 10523 10519 10514 10510 10506 10501 10496 10491 10486 10480 10475 10469 10464 10458 10453 10447 10441 10436 10431 10426 10420 10415 10409 10404 10399 10393 10388 10382 10377 10372 10367 10360 10354 10349 10345 10339 10333 10327 10321 10316 10311 10304 10296 10291 10286 10282 10279 10275 10269 10263 10258 10252 10246 10240 10235 10230 10225 10220 10214 10208 10202 10197 10191
10610 10607 10603 10599 10596 10592 10589 10585 10582 10579 10575 10572 10568 10565 10561 10558 10554 10550 10546 10542 10539 10535 10531 10527 10523 10519 10515 10510 10506 10501 10496 10490 10485 10479 10473 10467 10461 10455 10450 10444 10438 10433 10428 10423 10417 10412 10407 10401 10395 10389 10383 10378 10372 10366 10361 10356 10351 10345 10338 10333 10327 10322 10316 10310 10305 10300 10294 10286 10280 10274 10269 10265 10262 10256 10249 10243 10238 10233 10227 10221 10216 10210 10205 10199 10192 10187 10182 10177
10607 10604 10600 10596 10593 10589 10586 10583 10579 10576 10572 10569 10565 10562 10558 10554 10551 10547 10543 10539 10535 10532 10528 10524 10520 10516 10511 10506 10501 10496 10490 10484 10478 10472 10466 10460 10453 10448 10442 10436 10430 10425 10419 10415 10409 10404 10399 10394 10388 10382 10376 10369 10363 10357 10350 10344 10339 10334 10328 10321 10316 10310 10305 10299 10294 10288 10281 10275 10269 10263 10257 10253 10248 10242 10236 10230 10224 10218 10212 10207 10202 10196 10189 10183 10177 10172 10166 10161
10604 10600 10597 10593 10590 10587 10583 10580 10577 10573 10570 10566 10562 10559 10555 10551 10547 10544 10540 10536 10532 10529 10525 10521 10516 10512 10507 10501 10495 10490 10484 10478 10472 10465 10459 10453 10447 10440 10435 10429 10423 10417 10412 10406 10401 10396 10390 10385 10380 10375 10370 10364 10358 10352 10345 10338 10332 10326 10319 10312 10306 10300 10294 10288 10283 10276 10269 10264 10258 10251 10246 10241 10235 10229 10223 10216 10209 10203 10198 10193 10188 10182 10175 10169 10163 10157 10151 10145
10601 10598 10594 10591 10588 10584 10581 10578 10574 10571 10567 10563 10560 10556 10552 10548 10545 10541 10538 10534 10530 10526 10522 10517 10512 10507 10502 10496 10490 10484 10478 10471 10465 10459 10453 10446 10440 10434 10428 10422 10416 10410 10404 10399 10393 10387 10382 10377 10371 10365 10360 10355 10349 10344 10338 10332 10326 10319 10312 10305 10298 10291 10285 10278 10271 10265 10259 10253 10247 10240 10233 10228 10222 10216 10209 10203 10196 10190 10184 10179 10173 10167 10160 10154 10148 10143 10137 10131
10599 10596 10593 10589 10585 10582 10579 10575 10572 10568 10565 10561 10557 10553 10550 10546 10542 10539 10535 10531 10527 10522 10517 10512 10507 10502 10496 10490 10484 10477 10471 10465 10458 10452 10446 10440 10433 10428 10422 10416 10410 10404 10398 10392 10386 10380 10375 10369 10363 10357 10352 10346 10340 10334 10328 10322 10316 10309 10302 10296 10289 10282 10275 10268 10261 10254 10249 10243 10237 10230 10222 10216 10210 10204 10197 10191 10184 10178 10171 10165 10159 10152 10146 10140 10134 10128 10122 10115
10597 10594 10591 10587 10584 10580 10577 10573 10570 10566 10563 10559 10555 10551 10548 10544 10540 10536 10532 10528 10523 10518 10513 10508 10502 10496 10489 10483 10477 10471 10464 10458 10452 10446 10440 10434 10428 10422 10417 10411 10405 10399 10393 10387 10381 10375 10370 10364 10357 10351 10345 10339 10332 10326 10319 10312 10306 10299 10292 10284 10278 10271 10264 10257 10250 10243 10238 10232 10226 10219 10211 10204 10198 10192 10185 10179 10173 10167 10160 10153 10147 10140 10134 10128 10121 10115 10109 10102
10595 10592 10589 10585 10582 10579 10575 10572 10568 10565 10561 10557 10553 10550 10546 10542 10538 10534 10529 10525 10520 10515 10510 10504 10497 10491 10485 10479 10473 10467 10460 10454 10448 10442 10436 10430 10424 10418 10412 10406 10400 10394 10388 10382 10376 10370 10364 10358 10351 10345 10339 10332 10326 10319 10312 10305 10298 10291 10284 10276 10269 10261 10254 10247 10241 10235 10228 10221 10215 10208 10201 10194 10187 10180 10174 10168 10162 10156 10149 10142 10136 10129 10123 10117 10110 10104 10097 10090
10593 10590 10587 10584 10581 10577 10574 10570 10566 10563 10559 10555 10551 10547 10543 10539 10535 10531 10527 10522 10517 10512 10506 10500 10494 10489 10483 10477 10471 10465 10458 10452 10445 10438 10432 10425 10419 10413 10407 10401 10395 10389 10383 10377 10371 10365 10359 10353 10346 10340 10334 10328 10321 10314 10307 10300 10292 10285 10277 10269 10261 10253 10245 10238 10233 10228 10221 10212 10205 10199 10192 10185 10178 10170 10163 10157 10151 10144 10137 10131 10124 10117 10111 10104 10097 10091 10084 10077
10593 10590 10587 10583 10580 10576 10572 10568 10564 10560 10557 10553 10549 10545 10541 10537 10533 10529 10525 10520 10515 10509 10504 10499 10493 10488 10482 10476 10469 10462 10455 10448 10441 10435 10428 10422 10416 10410 10404 10398 10392 10386 10380 10374 10369 10362 10356 10350 10343 10337 10331 10324 10317 10310 10304 10296 10288 10279 10271 10263 10254 10245 10235 10227 10223 10220 10213 10205 10197 10190 10183 10177 10169 10162 10154 10147 10141 10133 10126 10119 10113 10105 10098 10091 10085 10078 10071 10064
10592 10589 10586 10582 10578 10574 10571 10567 10563 10559 10555 10551 10547 10543 10539 10535 10531 10527 10523 10518 10513 10508 10504 10498 10493 10487 10480 10474 10467 10460 10453 10446 10440 10433 10427 10421 10415 10409 10404 10398 10392 10386 10380 10374 10368 10362 10355 10349 10342 10335 10329 10322 10315 10307 10299 10292 10284 10276 10267 10259 10249 10240 10229 10219 10215 10211 10203 10195 10190 10182 10175 10168 10160 10153 10146 10138 10131 10123 10115 10109 10103 10095 10088 10081 10074 10067 10060 10053